Regional Weather Roundup
Issued by NWS

Home | Current Version | Previous Version | Graphics & Text | Print | Product List | Glossary On
Versions: 1 2 3 4 5 6 7 8 9 10 11 12 13 14 15 16 17 18 19 20 21 22 23 24 25 26 27 28 29 30 31 32 33 34 35 36 37 38 39 40 41 42 43 44 45 46 47 48 49 50
635
ASUS43 KLMK 060610
RWRKY
KENTUCKY REGIONAL WEATHER ROUNDUP
NATIONAL WEATHER SERVICE LOUISVILLE KY
100 AM EST SAT FEB 06 2016

NOTE "FAIR" INDICATES FEW OR NO CLOUDS BELOW 12,000 FEET
WITH NO SIGNIFICANT WEATHER AND/OR OBSTRUCTIONS TO VISIBILITY.

KYZ001>023-026-027-061>063-070>075-060700-
WESTERN AND SOUTH CENTRAL KENTUCKY

CITY           SKY/WX    TMP DP  RH WIND       PRES   REMARKS
PADUCAH        CLEAR     28  22  78 CALM      30.34F
HENDERSON      CLEAR     30  25  80 E3        30.36F
OWENSBORO      PTCLDY    33  25  73 NE5       30.36F WCI  28
HOPKINSVILLE   PTCLDY    35  23  60 CALM      30.35F
BOWLING GREEN  CLOUDY    33  21  61 CALM      30.37F
GLASGOW        PTCLDY    31  20  63 CALM      30.36F
$$

KYZ024-025-028>034-038-045-046-053-060700-
NORTH CENTRAL KENTUCKY

CITY           SKY/WX    TMP DP  RH WIND       PRES   REMARKS
LOUISVILLE/SDF CLOUDY    34  21  59 N6        30.35S WCI  29
LOUISVILLE/LOU CLOUDY    34  22  61 NW3       30.36S
FORT KNOX      CLOUDY    29  19  64 SW3       30.33S
$$

KYZ035>037-039>044-047>052-055>060-089>105-060700-
NORTHEAST KENTUCKY

CITY           SKY/WX    TMP DP  RH WIND       PRES   REMARKS
LEXINGTON      PTCLDY    32  18  56 S8        30.34S WCI  25
COVINGTON      PTCLDY    29  24  82 NW5       30.33S WCI  24
FRANKFORT      CLOUDY    32  17  54 SW5       30.33S WCI  27
$$

KYZ054-064>069-076>088-106>120-060700-
SOUTHEAST KENTUCKY

CITY           SKY/WX    TMP DP  RH WIND       PRES   REMARKS
JACKSON        CLOUDY    31  14  49 S3        30.35S
LONDON         CLOUDY    27  20  75 CALM      30.36F
SOMERSET       PTCLDY    28  21  74 CALM      30.39S
MIDDLESBORO    PTCLDY    27  23  84 CALM      30.40S
MONTICELLO     CLOUDY    27  20  75 W3        30.38S
$$





USA.gov is the U.S. government's official web portal to all federal, state and local government web resources and services.